Weather in Pestyaky

Russia / Ivanovo Oblast     56°42′30″N   42°40′12″E
temp.,
°C
wind,
m/s
gust,
m/s
humid.,
%
clouds,
%
prec.,
mm/h
press.,
hPa
HPBL,
m
9 december, thu
thu900:00−7n3895100 1.8 1022213
03:00−7n4995100 4.2 1022285
06:00−7n41095100 1.6 1021346
09:00−7n4995100 3.8 1023382
12:00−7n3894100 0.9 1023329
15:00−10n39935 1.0 1025254
18:00−13n38955 0.0 1027154
21:00−15n26979 0.0 1029104
10 december, fri
fri1000:00−16nnw279710 0.0 1030101
03:00−17n259710 0.0 103279
06:00−17nne279853 0.0 103396
09:00−16nne269857 0.0 103585
12:00−11ne269036 0.0 1036258
15:00−14nne119711 0.0 10369
18:00−15ene27955 0.0 103894
21:00−14e29945 0.0 1038162
11 december, sat
sat1100:00−15e28955 0.0 1039133
03:00−16e28966 0.0 1039138
06:00−15ese310925 0.0 1040190
09:00−16e29946 0.0 1040158
12:00−11ese38865 0.0 1040223
15:00−12ese29895 0.0 1040178
18:00−12ese311875 0.0 1041213
21:00−12ese413835 0.0 1041229
12 december, sun
sun1200:00−12ese313845 0.0 1041227
03:00−12se311845 0.0 1041210
06:00−13se39905 0.0 1042148
09:00−13se310907 0.0 1041143
12:00−8sse3108463 0.0 1041269
15:00−10se269217 0.0 1040102
18:00−12sse27935 0.0 1040106
21:00−12sse279258 0.0 1040103
13 december, mon
mon1300:00−12sse279058 0.0 104086
03:00−13sse259040 0.0 104076
06:00−13sse27898 0.0 103986
09:00−13sse288872 0.0 1038110
12:00−7sse31082100 0.0 1037239
15:00−9sse2788100 0.0 1037133
18:00−9sse31087100 0.0 1036168
21:00−8sse3987100 0.0 1035189